Retour au catalogue

COSMOS 1622

ActifMilitairePO
NORAD 15474·PAYLOAD·🇷🇺 Russia

Lancé Jan 15, 1985 depuis Plesetsk Cosmodrome

Loading…

Prochains Passages (prochaines 24 heures)

TLE

FraisSource: Space-Track

Époque: Sep 14, 2026, 19:30 UTC

1 15474U 85003F   26257.81273993  .00000009  00000-0 -90619-5 0  9991
2 15474  82.6112  27.6833 0008448 337.5756 177.5523 12.63800536921851

Suivez COSMOS 1622 en temps réel avec AllMySat

Download on the App Store